TimeEDT,TemperatureF,Dew PointF,Humidity,Sea Level PressureIn,VisibilityMPH,Wind Direction,Wind SpeedMPH,Gust SpeedMPH,PrecipitationIn,Events,Conditions,WindDirDegrees,DateUTC
12:52 AM,23.0,19.9,88,30.37,10.0,Calm,Calm,-,N/A,,Clear,0,2013-03-10 05:52:00
1:52 AM,21.0,19.0,92,30.38,10.0,Calm,Calm,-,N/A,,Clear,0,2013-03-10 06:52:00
3:52 AM,21.0,19.0,92,30.37,10.0,Calm,Calm,-,N/A,,Clear,0,2013-03-10 07:52:00
4:52 AM,19.0,17.1,92,30.37,9.0,Calm,Calm,-,N/A,,Clear,0,2013-03-10 08:52:00
5:52 AM,19.0,17.1,92,30.37,7.0,Calm,Calm,-,N/A,,Clear,0,2013-03-10 09:52:00
6:52 AM,18.0,16.0,92,30.39,8.0,Calm,Calm,-,N/A,,Clear,0,2013-03-10 10:52:00
7:52 AM,18.0,16.0,92,30.40,8.0,Calm,Calm,-,N/A,,Clear,0,2013-03-10 11:52:00
8:52 AM,24.1,23.0,96,30.41,10.0,Calm,Calm,-,N/A,,Clear,0,2013-03-10 12:52:00
9:52 AM,32.0,25.0,75,30.41,10.0,Calm,Calm,-,N/A,,Clear,0,2013-03-10 13:52:00
10:52 AM,36.0,26.1,67,30.40,10.0,Calm,Calm,-,N/A,,Clear,0,2013-03-10 14:52:00
11:52 AM,41.0,27.0,57,30.36,10.0,Calm,Calm,-,N/A,,Clear,0,2013-03-10 15:52:00
12:52 PM,44.1,26.1,49,30.36,10.0,Calm,Calm,-,N/A,,Clear,0,2013-03-10 16:52:00
1:52 PM,45.0,27.0,49,30.34,10.0,SSW,8.1,-,N/A,,Clear,200,2013-03-10 17:52:00
2:52 PM,46.0,27.0,47,30.31,10.0,SSW,9.2,-,N/A,,Clear,210,2013-03-10 18:52:00
3:52 PM,46.9,26.1,44,30.30,10.0,South,9.2,-,N/A,,Clear,190,2013-03-10 19:52:00
4:52 PM,48.0,25.0,41,30.29,10.0,South,5.8,-,N/A,,Clear,170,2013-03-10 20:52:00
5:52 PM,48.0,25.0,41,30.28,10.0,South,5.8,-,N/A,,Clear,170,2013-03-10 21:52:00
6:52 PM,46.0,26.1,46,30.29,10.0,SSE,3.5,-,N/A,,Clear,150,2013-03-10 22:52:00
7:52 PM,43.0,27.0,53,30.31,10.0,Calm,Calm,-,N/A,,Partly Cloudy,0,2013-03-10 23:52:00
8:52 PM,41.0,27.0,57,30.29,10.0,SE,3.5,-,N/A,,Overcast,140,2013-03-11 00:52:00
9:52 PM,42.1,27.0,55,30.29,10.0,South,3.5,-,N/A,,Scattered Clouds,170,2013-03-11 01:52:00
10:52 PM,39.9,30.9,70,30.29,10.0,South,10.4,-,N/A,,Scattered Clouds,180,2013-03-11 02:52:00
12:52 AM,37.0,30.0,76,30.29,10.0,South,6.9,-,N/A,,Clear,180,2013-03-11 04:52:00